Temp
16 16 16 16 17 17 17 18 18 18 19 19 19 20 20 20 20 20 20 20 20 20 20 20 20 20 20 20 19 19 13 13 15 14 15 14 14 13 13 12 12 12 12 11 10
16 16 16 17 17 17 17 17 18 18 19 19 19 20 20 20 20 20 20 20 20 20 20 20 20 20 20 19 19 16 12 15 15 15 14 14 15 13 12 11 11 11 12 11 10
16 16 16 17 17 17 18 18 18 18 19 19 19 20 20 20 20 20 20 20 20 20 20 20 20 20 19 19 18 15 14 15 15 15 15 14 13 13 12 10 12 13 12 10 10
16 16 16 17 17 17 18 18 18 18 19 19 19 20 20 20 19 20 20 20 20 20 20 20 20 20 17 17 17 15 15 15 15 15 15 14 14 13 13 14 14 14 13 11 10
15 16 16 17 17 17 18 18 18 19 19 19 20 20 20 20 20 20 20 20 20 20 20 20 20 20 17 17 17 15 14 15 15 15 15 14 14 13 13 14 14 12 11 11 10
15 16 16 17 17 17 18 18 18 19 19 19 20 20 20 20 19 20 20 20 20 19 20 20 20 20 18 16 16 15 14 14 14 15 14 14 13 13 13 13 13 12 11 10 10
15 16 16 17 17 17 18 18 18 19 19 19 20 20 20 20 19 19 19 20 19 19 20 20 20 19 18 16 15 15 14 13 13 14 14 14 12 11 13 12 12 11 11 10 10
15 16 16 17 17 18 18 18 18 19 19 19 19 20 20 19 19 19 19 19 19 19 19 19 19 19 17 16 15 14 13 13 13 13 13 13 12 12 12 12 11 11 10 10 10
15 16 16 17 17 18 18 18 19 19 19 19 19 20 19 19 19 19 19 19 19 19 19 19 19 17 17 13 12 12 14 15 14 13 12 12 12 12 11 11 11 10 10 10 10
15 15 16 17 17 18 18 18 19 19 19 19 19 19 19 19 19 19 19 19 19 19 19 19 18 12 11 12 14 15 15 15 14 13 12 11 9 10 10 10 11 11 10 10 10
15 15 16 17 17 18 18 18 18 18 19 19 19 19 19 19 19 19 19 19 19 19 16 17 14 15 16 14 15 16 16 14 15 13 12 10 10 10 10 8 8 10 10 10 11
15 15 16 17 17 18 18 18 18 18 18 19 19 19 19 19 19 19 19 19 18 16 17 14 15 16 16 16 16 16 15 14 14 13 12 11 11 10 9 8 9 11 11 11 11
15 15 15 16 17 17 18 18 18 18 18 18 19 19 19 19 19 18 18 18 18 17 16 15 17 17 17 16 16 15 15 14 14 13 12 10 11 14 10 9 9 10 12 12 12
15 15 15 16 16 17 17 17 17 18 12 17 18 18 18 19 18 18 18 18 17 17 16 16 16 16 16 16 14 15 14 14 14 12 13 12 13 13 12 10 8 10 11 13 13
14 15 15 16 16 16 17 17 17 17 16 17 17 18 18 18 17 17 17 18 17 17 16 16 15 16 16 15 14 14 13 13 13 11 11 12 11 12 11 14 11 10 12 13 14
14 15 15 16 16 16 17 17 17 14 17 16 17 17 17 17 17 17 17 17 17 16 15 15 15 14 14 14 14 13 13 10 8 8 11 13 12 13 14 16 14 13 14 16 16
14 14 15 16 16 16 17 17 14 15 17 16 16 16 16 16 16 16 16 15 14 15 15 15 14 13 14 14 13 12 10 11 14 11 13 12 11 12 14 13 13 14 17 17 16
14 14 15 15 16 16 16 14 16 16 15 16 16 15 16 15 16 15 14 14 13 14 11 14 15 13 13 14 14 13 11 10 17 13 12 10 11 15 13 14 14 15 17 18 19
13 14 14 15 15 16 16 13 15 15 16 16 17 16 16 16 16 15 14 13 13 12 15 13 15 12 12 12 13 12 12 11 10 9 9 10 11 13 13 13 14 16 17 18 19
13 14 14 14 15 15 13 13 14 16 17 17 16 16 15 15 16 15 14 14 16 13 15 15 15 12 12 12 11 12 10 12 8 13 14 11 11 13 17 16 12 13 17 19 18
13 13 13 14 14 15 11 11 14 18 19 17 15 15 15 15 14 14 15 16 15 14 15 13 14 13 12 11 11 10 10 9 8 8 11 10 12 10 14 16 13 14 17 19 19
12 11 12 13 13 9 9 12 16 17 18 17 16 17 15 14 14 13 15 15 16 15 14 13 11 12 13 11 11 11 11 9 7 12 6 3 8 12 11 13 15 16 17 18 17
12 12 12 13 9 8 10 13 16 16 16 16 16 16 16 15 17 14 15 14 14 13 13 12 11 12 14 12 10 11 9 9 6 5 7 7 11 12 12 14 16 16 17 17 17
12 8 11 12 11 10 12 13 14 16 16 17 16 16 16 16 15 16 15 13 14 14 14 14 10 12 12 15 11 11 10 8 9 4 7 7 14 14 15 12 15 17 17 16 16
11 10 11 7 9 10 11 13 13 14 15 15 15 14 14 14 15 14 14 12 12 13 13 11 12 10 11 11 12 12 13 8 7 10 12 16 10 12 14 12 14 15 16 16 16
11 11 10 10 10 10 9 10 12 13 13 13 13 13 13 13 14 13 12 12 14 10 11 8 11 9 12 13 10 12 12 10 9 10 9 12 12 14 15 15 14 15 15 15 15
10 10 11 9 7 8 8 10 11 13 15 15 14 13 12 13 17 17 17 16 15 11 9 8 9 9 9 12 12 11 14 12 10 9 11 12 14 15 11 12 14 16 15 15 15
Height
1553 1553 1553 1553 1553 1553 1553 1554 1554 1555 1554 1555 1555 1555 1555 1555 1556 1556 1556 1556 1555 1555 1555 1556 1556 1556 1555 1555 1554 1555 1566 1576 1572 1573 1570 1571 1572 1575 1575 1576 1578 1578 1578 1578 1581
1553 1553 1553 1554 1554 1554 1554 1554 1554 1554 1554 1555 1555 1555 1555 1556 1557 1556 1557 1555 1555 1555 1556 1557 1557 1556 1556 1556 1556 1556 1570 1568 1566 1566 1568 1570 1571 1573 1576 1577 1577 1577 1577 1577 1580
1554 1553 1553 1554 1554 1554 1554 1554 1555 1555 1555 1555 1555 1555 1555 1556 1558 1557 1556 1556 1555 1556 1557 1557 1557 1557 1556 1556 1558 1559 1567 1565 1566 1566 1567 1569 1571 1572 1573 1577 1573 1573 1575 1577 1580
1553 1553 1553 1553 1553 1553 1553 1553 1554 1554 1554 1555 1555 1555 1555 1556 1561 1557 1556 1556 1556 1556 1557 1557 1557 1557 1557 1558 1559 1562 1563 1564 1566 1567 1568 1569 1570 1571 1571 1571 1571 1572 1573 1575 1578
1553 1553 1553 1552 1552 1552 1552 1553 1553 1554 1554 1555 1555 1556 1556 1558 1558 1557 1556 1556 1556 1556 1557 1557 1557 1557 1559 1559 1560 1562 1564 1564 1565 1566 1568 1569 1569 1570 1569 1569 1569 1571 1574 1575 1577
1553 1553 1552 1552 1552 1552 1552 1552 1553 1553 1554 1555 1555 1556 1557 1558 1558 1557 1556 1556 1556 1557 1557 1558 1558 1558 1559 1561 1563 1564 1565 1565 1566 1566 1567 1568 1569 1569 1567 1567 1568 1570 1572 1574 1576
1552 1552 1552 1552 1552 1552 1552 1552 1552 1553 1554 1554 1555 1555 1556 1559 1558 1558 1558 1557 1557 1558 1558 1559 1559 1560 1562 1563 1565 1566 1568 1568 1567 1567 1567 1567 1570 1565 1564 1566 1567 1568 1570 1572 1574
1551 1552 1551 1551 1551 1551 1551 1551 1552 1553 1554 1554 1555 1556 1556 1557 1558 1558 1559 1558 1558 1558 1559 1559 1560 1560 1563 1566 1567 1568 1570 1575 1567 1568 1569 1569 1569 1560 1562 1564 1565 1567 1568 1569 1570
1550 1551 1551 1550 1550 1550 1551 1551 1552 1553 1554 1554 1556 1556 1557 1558 1558 1558 1559 1559 1559 1559 1559 1560 1560 1562 1565 1569 1575 1574 1577 1573 1569 1567 1568 1571 1566 1559 1561 1562 1563 1564 1565 1566 1567
1549 1549 1549 1549 1549 1549 1550 1551 1552 1554 1554 1555 1555 1559 1558 1558 1557 1558 1559 1559 1559 1559 1561 1561 1561 1565 1570 1574 1585 1577 1576 1571 1572 1567 1568 1569 1565 1560 1560 1560 1559 1560 1562 1562 1563
1547 1548 1548 1548 1548 1549 1550 1551 1555 1556 1554 1555 1556 1556 1556 1557 1558 1558 1558 1559 1559 1560 1563 1562 1568 1572 1568 1568 1567 1569 1571 1573 1566 1564 1567 1566 1561 1554 1554 1557 1556 1556 1557 1557 1557
1545 1547 1547 1547 1548 1548 1549 1549 1550 1553 1554 1555 1555 1556 1557 1558 1559 1559 1560 1561 1560 1563 1562 1568 1571 1565 1564 1566 1568 1568 1571 1573 1565 1563 1566 1562 1550 1543 1543 1541 1544 1546 1550 1551 1553
1542 1545 1546 1546 1547 1549 1549 1549 1550 1551 1553 1556 1556 1556 1558 1559 1559 1559 1560 1561 1562 1564 1565 1571 1567 1565 1565 1567 1569 1570 1572 1571 1572 1565 1562 1561 1548 1536 1538 1539 1540 1541 1542 1545 1547
1540 1543 1545 1546 1550 1548 1549 1550 1550 1551 1563 1558 1556 1556 1557 1558 1559 1559 1560 1562 1562 1564 1565 1568 1566 1566 1566 1568 1570 1572 1569 1570 1570 1574 1577 1565 1572 1542 1537 1538 1536 1535 1535 1535 1539
1538 1541 1543 1546 1546 1548 1550 1550 1551 1553 1577 1557 1555 1555 1556 1559 1560 1560 1560 1561 1563 1563 1566 1568 1566 1566 1568 1569 1569 1572 1570 1571 1570 1576 1580 1573 1581 1545 1538 1532 1529 1527 1527 1528 1531
1536 1539 1542 1544 1546 1548 1549 1551 1553 1565 1569 1558 1554 1555 1556 1557 1559 1559 1560 1561 1562 1564 1566 1567 1567 1567 1567 1568 1569 1570 1571 1575 1579 1584 1587 1572 1577 1552 1538 1529 1526 1524 1523 1524 1526
1535 1538 1541 1543 1546 1547 1549 1552 1564 1572 1553 1557 1556 1555 1557 1559 1559 1559 1560 1563 1567 1571 1572 1568 1568 1568 1568 1570 1570 1572 1580 1591 1581 1588 1582 1572 1577 1548 1528 1526 1524 1521 1520 1521 1523
1533 1536 1539 1542 1545 1547 1549 1553 1564 1551 1552 1548 1552 1557 1559 1557 1558 1560 1563 1567 1563 1565 1577 1576 1576 1570 1570 1571 1572 1574 1579 1595 1579 1592 1587 1575 1574 1538 1525 1523 1521 1520 1518 1518 1518
1532 1535 1538 1541 1544 1546 1549 1561 1553 1547 1542 1546 1551 1557 1559 1556 1558 1561 1564 1565 1560 1561 1571 1576 1571 1570 1569 1570 1572 1576 1582 1580 1590 1596 1597 1575 1554 1529 1521 1520 1520 1519 1518 1518 1518
1531 1535 1538 1540 1543 1546 1550 1553 1544 1537 1538 1541 1549 1551 1561 1557 1559 1561 1561 1554 1554 1556 1557 1562 1572 1570 1570 1570 1573 1573 1577 1583 1594 1590 1580 1576 1567 1549 1522 1519 1518 1516 1516 1517 1517
1531 1534 1536 1539 1542 1545 1554 1551 1540 1536 1536 1540 1545 1550 1550 1553 1556 1560 1556 1550 1549 1554 1556 1561 1568 1573 1572 1574 1574 1580 1581 1584 1587 1592 1589 1588 1562 1531 1524 1518 1518 1516 1515 1514 1514
1530 1533 1534 1537 1542 1544 1547 1540 1538 1537 1537 1537 1538 1541 1546 1548 1554 1557 1553 1549 1547 1549 1556 1555 1567 1573 1568 1567 1567 1569 1572 1576 1595 1580 1597 1608 1572 1519 1519 1518 1516 1514 1514 1512 1511
1529 1531 1534 1535 1542 1544 1539 1536 1535 1536 1537 1538 1539 1538 1540 1545 1550 1549 1546 1546 1547 1548 1552 1554 1566 1575 1565 1569 1568 1569 1569 1571 1579 1587 1588 1592 1556 1516 1517 1516 1515 1513 1512 1509 1505
1528 1532 1532 1534 1532 1533 1536 1535 1535 1532 1534 1535 1536 1537 1539 1541 1542 1544 1546 1547 1548 1549 1550 1551 1563 1563 1571 1555 1558 1562 1562 1565 1568 1597 1576 1566 1529 1522 1512 1513 1509 1509 1508 1505 1501
1523 1522 1523 1531 1529 1530 1532 1531 1531 1532 1531 1532 1534 1534 1538 1545 1543 1544 1543 1546 1547 1547 1549 1552 1559 1560 1555 1554 1554 1552 1549 1559 1562 1550 1552 1519 1532 1520 1507 1509 1507 1505 1502 1500 1497
1518 1519 1520 1521 1521 1526 1529 1528 1527 1527 1528 1531 1533 1531 1533 1538 1537 1542 1541 1544 1542 1548 1550 1552 1555 1557 1552 1546 1552 1552 1539 1542 1544 1539 1539 1528 1515 1504 1502 1503 1500 1499 1499 1497 1495
1513 1515 1516 1517 1520 1524 1521 1518 1521 1521 1520 1520 1524 1529 1531 1528 1528 1530 1531 1533 1534 1538 1546 1551 1554 1559 1558 1546 1548 1551 1521 1525 1527 1523 1515 1519 1496 1493 1495 1495 1495 1495 1495 1494 1492
Wind_Speed
5 4 4 4 5 5 5 4 4 3 2 2 2 1 1 4 6 2 4 4 2 4 7 6 4 2 3 4 5 2 4 2 5 5 2 11 4 6 5 10 6 6 5 3 22
4 4 3 3 3 3 3 3 3 3 3 2 2 1 2 6 4 3 5 4 2 5 7 3 1 4 2 2 3 5 3 5 4 2 4 8 5 12 5 7 3 6 8 13 21
4 4 3 2 2 2 2 2 2 2 1 1 1 1 3 7 3 3 4 3 3 6 6 1 4 1 2 4 5 3 3 3 2 1 9 9 8 6 10 4 9 11 17 22 20
3 3 3 2 1 2 3 3 3 3 2 2 1 1 5 7 2 2 4 2 2 6 3 2 1 1 3 2 3 4 2 2 3 4 6 9 10 6 12 2 3 10 16 21 20
1 2 2 1 1 1 3 4 3 3 2 2 1 1 5 2 2 4 3 1 2 5 2 2 2 0 3 3 2 3 3 3 4 4 5 10 5 6 10 7 8 17 20 19 18
0 0 1 1 0 1 2 4 4 4 2 2 2 2 4 3 2 4 4 1 2 5 3 1 2 4 6 3 2 3 3 4 3 4 5 3 2 3 9 11 16 20 21 20 19
1 1 1 2 1 1 1 3 4 4 3 2 3 3 3 3 3 3 6 4 3 1 1 2 2 1 3 3 4 8 2 3 4 4 3 3 4 7 9 18 21 23 22 21 20
2 1 2 2 2 1 0 2 4 4 3 3 3 4 3 4 2 1 4 6 3 1 2 3 3 4 3 8 4 3 3 4 1 5 1 3 7 4 14 24 25 24 24 24 23
2 1 1 2 1 1 2 4 4 4 4 4 3 2 3 3 3 1 2 3 5 5 4 3 2 5 4 3 4 5 2 2 5 10 3 3 6 3 20 26 26 27 26 26 25
5 2 1 1 0 2 4 6 6 4 5 5 2 2 3 2 4 2 2 1 1 2 3 2 4 3 3 4 1 4 4 3 4 4 3 3 13 6 21 28 30 29 28 29 29
8 4 1 1 2 4 7 8 7 3 5 2 1 1 6 5 4 3 2 1 1 3 3 3 5 1 3 5 4 2 3 4 4 1 3 7 11 12 20 29 28 31 32 32 32
11 7 3 2 4 6 9 5 5 5 4 2 3 2 4 4 2 3 1 1 2 1 2 6 1 2 1 1 1 2 3 6 3 2 5 6 16 13 18 26 38 38 36 35 33
13 9 5 5 7 6 7 7 7 5 3 2 3 2 3 3 1 3 1 1 2 1 1 4 1 1 2 3 3 1 2 3 4 6 2 7 8 3 2 14 26 36 36 35 35
14 11 7 8 7 7 7 7 6 4 4 2 3 2 4 3 0 2 2 1 2 1 3 1 3 1 1 1 2 2 0 2 4 5 3 4 5 6 1 5 11 28 37 39 37
13 12 10 13 6 10 7 6 5 3 2 4 3 5 5 3 3 1 1 1 2 1 4 4 1 1 1 0 0 3 2 1 1 2 4 3 3 8 3 6 8 22 32 36 36
13 13 12 11 10 9 8 7 7 5 3 3 3 3 4 3 2 3 2 3 3 3 3 1 1 1 1 2 2 1 1 5 4 3 2 3 3 6 3 3 6 4 19 29 30
13 13 13 12 10 8 9 8 4 3 2 4 4 4 2 4 2 3 3 2 4 3 1 2 1 1 1 1 2 5 5 4 4 4 5 1 1 10 6 5 5 9 12 12 24
13 13 14 11 11 10 10 4 2 3 5 3 4 3 3 6 2 4 3 2 3 3 3 2 4 2 2 1 2 2 4 4 4 2 5 3 6 6 4 7 7 7 8 7 10
11 13 13 11 11 10 6 2 6 6 6 7 4 3 3 2 3 1 5 4 6 8 6 4 3 1 1 2 1 2 1 3 4 2 2 4 7 10 4 6 8 8 8 8 9
12 11 11 11 11 10 3 5 4 4 6 3 6 5 7 5 4 5 5 4 3 8 2 4 2 1 0 2 3 1 4 2 3 2 5 5 6 5 4 6 7 8 10 10 12
14 9 13 14 12 7 3 6 4 5 4 5 7 5 5 6 8 5 5 3 5 5 6 4 3 1 1 5 7 2 1 3 3 4 4 2 6 7 6 2 6 7 5 9 13
11 3 16 16 5 2 4 5 2 3 2 1 4 3 7 7 7 5 7 5 9 12 7 5 5 3 6 1 2 3 6 6 4 4 2 4 7 5 9 8 5 8 8 11 20
9 4 15 19 4 3 4 3 3 3 3 3 5 4 3 6 2 6 4 2 7 7 7 7 2 1 4 2 3 4 5 3 4 3 6 4 6 1 4 7 9 12 24 23 30
8 2 4 12 3 5 4 4 4 7 4 5 4 3 3 4 4 3 4 1 4 3 2 6 2 6 7 5 4 4 6 6 6 3 4 8 16 12 14 8 21 26 26 18 22
8 6 7 4 6 5 5 3 6 6 7 10 3 7 7 6 2 5 3 2 1 3 3 3 6 6 6 6 3 5 7 9 10 9 9 21 14 12 16 8 16 26 26 19 21
8 6 6 2 4 13 7 6 10 4 8 5 5 8 7 7 8 7 6 3 5 2 5 1 3 5 5 6 8 7 11 12 14 10 12 17 26 17 31 31 28 20 16 17 16
19 9 5 4 5 6 6 6 9 9 10 9 13 6 7 13 21 13 8 7 7 9 8 7 5 3 6 2 3 6 18 16 9 9 11 15 24 20 8 15 17 20 15 16 15
Wind_Direction
92 97 104 116 125 123 121 128 135 144 153 150 126 90 119 157 150 106 31 19 70 141 142 130 117 54 21 48 49 71 64 129 176 158 170 150 132 161 148 153 176 201 213 198 175
84 90 102 112 120 124 124 130 141 154 166 167 150 87 128 154 138 105 9 28 88 151 152 135 14 323 24 50 38 70 93 188 183 171 168 165 174 162 156 146 180 191 186 165 174
84 85 91 103 133 152 153 143 143 150 174 171 155 51 143 161 151 12 7 29 130 158 158 202 335 324 65 39 24 71 134 166 136 152 162 149 146 173 155 217 207 191 164 166 175
91 84 76 92 143 185 191 188 176 173 179 181 158 91 147 161 133 11 2 19 145 167 180 324 3 15 64 73 59 82 75 147 142 125 148 159 154 175 192 207 207 191 178 175 183
107 101 101 101 123 201 208 201 196 190 188 173 151 120 152 137 96 353 1 35 154 174 203 11 6 314 122 99 73 81 156 114 130 128 143 151 182 215 215 225 193 177 179 184 191
236 24 15 19 5 191 211 213 200 199 188 176 165 149 170 119 80 41 32 12 187 183 213 350 40 91 107 64 69 105 121 123 150 139 152 169 202 197 214 195 176 182 188 194 199
250 304 322 324 336 322 250 205 201 200 194 180 164 164 170 157 140 61 50 65 142 203 214 125 71 0 96 83 94 121 61 334 214 192 174 167 272 233 210 182 179 187 193 200 207
243 259 278 296 316 336 242 183 184 191 189 172 155 150 135 162 173 87 55 56 79 80 135 114 89 103 59 112 48 32 55 3 189 162 191 138 271 210 190 181 187 193 199 205 210
245 251 272 286 317 341 150 156 166 171 162 157 154 152 131 169 177 191 77 94 79 92 106 111 127 93 107 70 12 19 301 292 317 199 131 174 266 217 189 192 198 201 206 210 214
238 244 245 245 213 147 147 147 148 152 146 151 152 147 169 154 155 172 192 126 80 94 102 54 61 68 40 65 283 300 323 289 261 223 206 212 261 246 201 202 211 212 213 216 219
234 234 237 230 160 154 151 143 138 141 162 155 206 110 147 146 145 154 150 190 97 74 64 32 60 227 234 196 203 251 272 284 258 178 198 236 260 261 217 213 220 221 220 222 227
228 224 213 192 162 158 164 183 159 145 133 168 132 132 149 152 132 152 159 132 66 80 63 22 256 212 235 217 315 303 306 299 293 128 186 294 274 242 194 215 215 221 225 228 231
213 212 206 177 165 154 160 155 149 145 103 144 179 183 161 198 133 172 156 108 97 58 49 155 277 356 41 25 16 317 258 298 257 319 215 313 294 318 210 224 224 229 233 235 234
198 199 198 177 174 175 151 151 151 144 76 269 189 198 179 169 59 182 183 110 52 173 142 212 332 49 37 58 131 303 249 334 330 25 285 16 284 306 329 257 227 231 232 235 234
192 192 186 179 179 172 164 157 148 136 87 163 168 161 164 166 143 40 216 201 168 147 96 252 123 34 313 288 320 231 36 15 358 44 14 347 68 270 356 293 251 236 234 236 235
189 192 183 182 176 174 165 152 136 50 251 189 143 174 122 153 137 128 134 112 108 97 17 254 21 55 148 103 74 14 70 38 57 69 10 272 134 287 247 236 312 309 247 240 236
190 190 187 180 178 173 165 152 53 141 59 193 187 164 166 178 187 168 147 147 158 106 307 338 245 331 77 79 45 66 47 335 345 15 227 334 77 247 265 261 250 284 306 273 245
193 190 188 182 181 177 161 61 196 178 193 134 120 81 179 162 243 160 101 273 239 104 118 150 322 163 5 107 151 87 134 150 273 279 279 315 238 251 224 289 283 282 296 289 256
190 185 183 183 181 180 173 116 212 202 170 142 98 135 242 228 171 136 199 209 206 184 169 155 280 80 74 114 116 173 163 176 105 31 17 254 287 308 290 285 273 282 295 292 276
174 170 172 175 181 176 91 243 235 216 134 128 156 160 182 200 162 171 196 207 197 197 192 199 325 176 182 111 42 129 158 76 16 268 277 293 284 242 330 334 329 279 276 308 300
160 155 172 171 167 161 179 238 270 237 184 145 188 153 195 179 177 197 217 226 173 150 162 140 114 236 87 201 179 110 248 57 123 156 204 289 270 214 232 290 302 306 332 337 330
166 128 167 167 141 155 174 196 286 226 187 113 125 152 179 169 181 219 209 227 182 156 164 186 147 223 221 176 150 175 200 158 130 228 225 142 268 225 236 266 282 275 323 304 321
164 126 173 178 166 224 262 250 222 174 240 179 196 193 179 176 213 196 197 149 179 166 165 183 203 0 335 31 358 228 203 145 105 89 206 142 260 272 266 270 270 279 307 316 311
170 117 163 201 215 154 164 229 215 211 220 193 188 144 140 201 229 215 224 186 186 187 177 147 145 176 206 212 137 206 192 179 146 131 217 219 266 289 283 277 288 294 307 308 314
194 218 179 201 230 182 180 199 180 192 212 199 226 195 170 198 208 210 171 130 186 184 148 138 220 188 259 229 213 239 215 183 195 209 198 271 242 244 268 274 280 296 301 299 311
191 182 187 193 172 174 182 226 193 210 162 232 202 212 188 177 189 203 166 183 202 125 159 139 245 162 267 252 209 252 248 214 221 239 248 260 275 263 278 280 277 286 289 294 310
214 206 186 180 149 136 215 200 206 167 222 202 199 173 201 221 229 232 214 209 200 163 182 160 160 129 250 274 321 270 243 225 209 214 223 239 254 279 258 253 268 283 270 283 304